• In United Kingdom
  • List of Countries
  • For 7 days
  • Water Temperature
  • Satellite Maps
  • Weather Map
  • Weather Widgets
  • user-avatar
    Login

    Hourly Weather Igls

    Today, 23 July, Sunday

    Time Temperature Precipitation Wind Pressure Humidity
    00:00 +18°C° 1.7 mm 1 mps 685 mmHg 94%
    01:00 +18°C° 1.7 mm 1 mps 685 mmHg 95%
    02:00 +18°C° 1 mm 1 mps 685 mmHg 95%
    03:00 +18°C° 1 mm 1 mps 686 mmHg 95%
    04:00 +18°C° 1 mm 1 mps 686 mmHg 95%
    05:00 +18°C° 0.2 mm 1 mps 686 mmHg 92%
    06:00 +19°C° 0.2 mm 1 mps 686 mmHg 90%
    07:00 +18°C° 0.2 mm 0 mps 686 mmHg 87%
    08:00 +21°C° 0.2 mm 1 mps 686 mmHg 82%
    09:00 +22°C° 0.2 mm 1 mps 687 mmHg 77%
    10:00 +23°C° 0.2 mm 1 mps 687 mmHg 71%
    11:00 +23°C° 0.3 mm 1 mps 687 mmHg 73%
    12:00 +23°C° 0.3 mm 1 mps 687 mmHg 75%
    13:00 +23°C° 0.3 mm 1 mps 687 mmHg 77%
    14:00 +22°C° 0.9 mm 1 mps 686 mmHg 81%
    15:00 +20°C° 0.9 mm 2 mps 686 mmHg 85%
    16:00 +20°C° 0.9 mm 2 mps 686 mmHg 89%
    17:00 +19°C° 0.7 mm 2 mps 686 mmHg 91%
    18:00 +20°C° 0.7 mm 1 mps 686 mmHg 93%
    19:00 +19°C° 0.7 mm 1 mps 686 mmHg 96%
    20:00 +19°C° 0.5 mm 1 mps 685 mmHg 96%
    21:00 +18°C° 0.5 mm 1 mps 685 mmHg 97%
    22:00 +18°C° 0.5 mm 1 mps 685 mmHg 97%
    23:00 +18°C° 0.4 mm 1 mps 685 mmHg 97%

    Tomorrow, 24 July, Monday

    Time Temperature Precipitation Wind Pressure Humidity
    00:00 +16°C° 0.4 mm 1 mps 685 mmHg 97%
    01:00 +16°C° 0.4 mm 1 mps 684 mmHg 97%
    02:00 +16°C° 0.9 mm 1 mps 684 mmHg 97%
    03:00 +15°C° 0.9 mm 0 mps 683 mmHg 97%
    04:00 +14°C° 0.9 mm 0 mps 682 mmHg 97%
    05:00 +15°C° 0.8 mm 0 mps 682 mmHg 96%
    06:00 +16°C° 0.8 mm 0 mps 682 mmHg 95%
    07:00 +16°C° 0.8 mm 0 mps 681 mmHg 94%
    08:00 +18°C° 1.2 mm 1 mps 681 mmHg 92%
    09:00 +19°C° 1.2 mm 1 mps 681 mmHg 90%
    10:00 +19°C° 1.2 mm 1 mps 680 mmHg 87%
    11:00 +19°C° 1.9 mm 1 mps 680 mmHg 89%
    12:00 +18°C° 1.9 mm 1 mps 680 mmHg 91%
    13:00 +17°C° 1.9 mm 2 mps 680 mmHg 92%
    14:00 +16°C° 3.7 mm 2 mps 680 mmHg 94%
    15:00 +15°C° 3.7 mm 2 mps 680 mmHg 95%
    16:00 +14°C° 3.7 mm 2 mps 680 mmHg 97%
    17:00 +14°C° 1.3 mm 2 mps 680 mmHg 97%
    18:00 +13°C° 1.3 mm 2 mps 680 mmHg 96%
    19:00 +13°C° 1.3 mm 2 mps 680 mmHg 96%
    20:00 +12°C° 0.2 mm 2 mps 680 mmHg 96%
    21:00 +12°C° 0.2 mm 2 mps 680 mmHg 95%
    22:00 +10°C° 0.2 mm 2 mps 680 mmHg 95%
    23:00 +10°C° 0 mm 2 mps 680 mmHg 95%

    Day after tomorrow, 25 July, Tuesday

    Time Temperature Precipitation Wind Pressure Humidity
    00:00 +9°C° 0 mm 2 mps 680 mmHg 95%
    01:00 +8°C° 0 mm 2 mps 680 mmHg 95%
    02:00 +8°C° 0 mm 2 mps 679 mmHg 94%
    03:00 +7°C° 0 mm 2 mps 679 mmHg 94%
    04:00 +7°C° 0 mm 2 mps 679 mmHg 94%
    05:00 +8°C° 0 mm 2 mps 679 mmHg 92%
    06:00 +9°C° 0 mm 2 mps 679 mmHg 89%
    07:00 +12°C° 0 mm 2 mps 679 mmHg 86%
    08:00 +13°C° 0 mm 2 mps 679 mmHg 77%
    09:00 +15°C° 0 mm 2 mps 679 mmHg 68%
    10:00 +17°C° 0 mm 2 mps 679 mmHg 59%
    11:00 +18°C° 0.2 mm 2 mps 679 mmHg 58%
    12:00 +18°C° 0.2 mm 2 mps 679 mmHg 58%
    13:00 +18°C° 0.2 mm 2 mps 679 mmHg 58%
    14:00 +18°C° 0.6 mm 3 mps 679 mmHg 62%
    15:00 +18°C° 0.6 mm 3 mps 679 mmHg 65%
    16:00 +17°C° 0.6 mm 3 mps 678 mmHg 69%
    17:00 +16°C° 1 mm 2 mps 678 mmHg 76%
    18:00 +15°C° 1 mm 2 mps 678 mmHg 84%
    19:00 +14°C° 1 mm 2 mps 678 mmHg 91%
    20:00 +13°C° 0.5 mm 2 mps 679 mmHg 93%
    21:00 +12°C° 0.5 mm 2 mps 679 mmHg 94%
    22:00 +11°C° 0.5 mm 1 mps 679 mmHg 96%
    23:00 +11°C° 0.3 mm 1 mps 679 mmHg 96%

    26 July, Wednesday

    Time Temperature Precipitation Wind Pressure Humidity
    00:00 +11°C° 0.3 mm 1 mps 679 mmHg 96%
    01:00 +11°C° 0.3 mm 1 mps 679 mmHg 96%
    02:00 +10°C° 0.2 mm 1 mps 679 mmHg 96%
    03:00 +10°C° 0.2 mm 1 mps 679 mmHg 96%
    04:00 +10°C° 0.2 mm 1 mps 679 mmHg 96%
    05:00 +10°C° 0.2 mm 2 mps 679 mmHg 96%
    06:00 +10°C° 0.2 mm 2 mps 679 mmHg 95%
    07:00 +12°C° 0.2 mm 2 mps 679 mmHg 94%
    08:00 +13°C° 0.1 mm 2 mps 679 mmHg 87%
    09:00 +14°C° 0.1 mm 2 mps 680 mmHg 81%
    10:00 +16°C° 0.1 mm 2 mps 680 mmHg 74%
    11:00 +16°C° 0.1 mm 2 mps 680 mmHg 73%
    12:00 +16°C° 0.1 mm 2 mps 680 mmHg 72%
    13:00 +17°C° 0.1 mm 2 mps 681 mmHg 70%
    14:00 +17°C° 0.4 mm 2 mps 681 mmHg 73%
    15:00 +16°C° 0.4 mm 2 mps 681 mmHg 76%
    16:00 +16°C° 0.4 mm 2 mps 681 mmHg 78%
    17:00 +15°C° 0.9 mm 2 mps 681 mmHg 83%
    18:00 +15°C° 0.9 mm 2 mps 681 mmHg 88%
    19:00 +14°C° 0.9 mm 2 mps 682 mmHg 93%
    20:00 +13°C° 1 mm 2 mps 682 mmHg 94%
    21:00 +13°C° 1 mm 2 mps 683 mmHg 95%
    22:00 +13°C° 1 mm 2 mps 683 mmHg 96%
    23:00 +12°C° 0.7 mm 2 mps 683 mmHg 96%

    27 July, Thursday

    Time Temperature Precipitation Wind Pressure Humidity
    00:00 +12°C° 0.7 mm 2 mps 683 mmHg 96%
    01:00 +12°C° 0.7 mm 2 mps 684 mmHg 95%
    02:00 +12°C° 0.1 mm 2 mps 684 mmHg 95%
    03:00 +12°C° 0.1 mm 2 mps 684 mmHg 96%
    04:00 +10°C° 0.1 mm 2 mps 684 mmHg 96%
    05:00 +12°C° 0 mm 2 mps 684 mmHg 94%
    06:00 +13°C° 0 mm 1 mps 684 mmHg 92%
    07:00 +14°C° 0 mm 1 mps 684 mmHg 90%
    08:00 +16°C° 0 mm 1 mps 685 mmHg 81%
    09:00 +19°C° 0 mm 1 mps 685 mmHg 72%
    10:00 +21°C° 0 mm 1 mps 686 mmHg 62%
    11:00 +21°C° 0 mm 2 mps 685 mmHg 60%
    12:00 +23°C° 0 mm 2 mps 685 mmHg 58%
    13:00 +23°C° 0 mm 2 mps 685 mmHg 57%
    14:00 +23°C° 0 mm 2 mps 685 mmHg 57%
    15:00 +23°C° 0 mm 2 mps 685 mmHg 58%
    16:00 +23°C° 0 mm 2 mps 685 mmHg 59%
    17:00 +21°C° 0 mm 2 mps 685 mmHg 65%
    18:00 +21°C° 0 mm 1 mps 685 mmHg 72%
    19:00 +20°C° 0 mm 1 mps 685 mmHg 79%
    20:00 +18°C° 0 mm 1 mps 685 mmHg 84%
    21:00 +16°C° 0 mm 1 mps 685 mmHg 88%
    22:00 +14°C° 0 mm 1 mps 685 mmHg 93%
    23:00 +14°C° 0 mm 1 mps 685 mmHg 93%

    28 July, Friday

    Time Temperature Precipitation Wind Pressure Humidity
    00:00 +13°C° 0 mm 1 mps 685 mmHg 93%
    01:00 +13°C° 0 mm 1 mps 685 mmHg 93%
    02:00 +13°C° 0 mm 1 mps 685 mmHg 93%
    03:00 +13°C° 0 mm 1 mps 685 mmHg 92%
    04:00 +13°C° 0 mm 1 mps 685 mmHg 92%
    05:00 +15°C° 0 mm 1 mps 685 mmHg 86%
    06:00 +18°C° 0 mm 1 mps 686 mmHg 81%
    07:00 +19°C° 0 mm 1 mps 686 mmHg 75%
    08:00 +21°C° 0 mm 1 mps 687 mmHg 66%
    09:00 +24°C° 0 mm 1 mps 687 mmHg 57%
    10:00 +26°C° 0 mm 1 mps 687 mmHg 48%
    11:00 +26°C° 0 mm 1 mps 687 mmHg 46%
    12:00 +27°C° 0 mm 1 mps 687 mmHg 44%
    13:00 +28°C° 0 mm 2 mps 687 mmHg 42%
    14:00 +28°C° 0 mm 2 mps 687 mmHg 45%
    15:00 +27°C° 0 mm 2 mps 687 mmHg 48%
    16:00 +27°C° 0 mm 2 mps 687 mmHg 51%
    17:00 +25°C° 0.3 mm 2 mps 687 mmHg 61%
    18:00 +24°C° 0.3 mm 2 mps 687 mmHg 72%
    19:00 +22°C° 0.3 mm 1 mps 687 mmHg 82%
    20:00 +21°C° 0.4 mm 1 mps 687 mmHg 87%
    21:00 +19°C° 0.4 mm 1 mps 687 mmHg 91%
    22:00 +18°C° 0.4 mm 1 mps 688 mmHg 95%
    23:00 +16°C° 0.1 mm 1 mps 688 mmHg 96%
    Show more